Weather Roundup
Issued by NWS Chicago, IL

Home | Current Version | Previous Version | Graphics & Text | Print | Product List | Glossary On
Versions: 1 2 3 4 5 6 7 8 9 10 11 12 13 14 15 16 17 18 19 20 21 22 23 24 25 26 27 28 29 30 31 32 33 34 35 36 37 38 39 40 41 42 43 44 45 46 47 48 49 50
000
NZUS59 KLOT 210410
HRRLOT

CHICAGO AREA WEATHER ROUNDUP
NATIONAL WEATHER SERVICE CHICAGO/ROMEOVILLE IL
1000 PM CST SAT DEC 20 2014

NOTE: "FAIR" INDICATES FEW OR NO CLOUDS BELOW 12,000 FEET WITH NO
SIGNIFICANT WEATHER AND/OR OBSTRUCTIONS TO VISIBILITY.

* THESE STATIONS ARE NOT UNDER NWS QUALITY CONTROL. THEY ALSO MAY NOT
  REPORT WEATHER SUCH AS PRECIPITATION OR FOG.

ILZ005-006-012>014-019>023-210500-
NORTHEAST ILLINOIS

CITY           SKY/WX    TMP DP  RH WIND       PRES   REMARKS
OHARE          CLOUDY    32  26  78 S7        30.24F WCI  26
MIDWAY         CLOUDY    34  27  75 S6        30.26F WCI  29
AURORA         CLOUDY    32  26  78 S6        30.24F HAZE    WCI  26
LANSING*       CLOUDY    32  27  83 S5        30.27S WCI  27
JOLIET*        CLOUDY    32  27  82 S3        30.26S
WAUKEGAN       CLOUDY    31  25  78 S5        30.24S WCI  26
DUPAGE AIRPORT CLOUDY    32  26  78 S7        30.24S WCI  26
WHEELING       CLOUDY    32  26  78 S9        30.26F WCI  24
KANKAKEE*      CLOUDY    32  28  86 SE3       30.27S
MORRIS*        CLOUDY    32  30  92 S5        30.25S WCI  27
LEWIS AIRPORT* CLOUDY    32  27  83 S7        30.25F WCI  26
NORTHERLY IS     N/A     33  26  76 S7          N/A  WCI  27
$$

WIZ051-052-058>065-066-070>072-210500-
SOUTHEAST WISCONSIN

CITY           SKY/WX    TMP DP  RH WIND       PRES   REMARKS
MILWAUKEE      CLOUDY    31  24  75 SW6       30.24S WCI  25
KENOSHA*       CLOUDY    32  25  75 S5        30.24S WCI  27
RACINE*        CLOUDY    32  25  75 S7        30.26S WCI  26
BURLINGTON     CLOUDY    29  25  85 S3        30.23S
WAUKESHA       CLOUDY    30  27  86 S6        30.23S WCI  24
WEST BEND      CLOUDY    30  27  86 CALM      30.22S
$$

INZ001>003-010>013-019-020-210500-
NORTHWEST INDIANA

CITY           SKY/WX    TMP DP  RH WIND       PRES   REMARKS
GARY*          CLOUDY    34  24  68 S3        30.27F
MICHIGAN CITY* NOT AVBL
RENSSELAER*    NOT AVBL
VALPARAISO     CLOUDY    30  26  85 S3        30.27F
$$

LMZ740>746-210500-
SOUTHERN LAKE MICHIGAN

STATION/POSITION TIME  SKY/WX   TEMP WIND        PRES    VSBY
                                AIR  DIR/SP/G
                 (UTC)          (F)  (DEG/KT/KT) (MB)    (MI)
HARRISON CRIB    0400            33  190/ 10/ 12   N/A
BURNHAM HARBOR   0400            33  180/  7/ 10   N/A
CALUMET HARBOR   0400            33  170/  6/  8 1023.5S
BURNS HARBOR     NOT AVBL
MICHIGAN CITY    NOT AVBL
$$

ABBREVIATIONS USED IN REMARKS
   TC - TEMPERATURE IN CELSIUS
  WCI - WIND CHILL INDEX
   HX - HEAT INDEX
  VSB - VISIBILITY
$$



USA.gov is the U.S. government's official web portal to all federal, state and local government web resources and services.